Вернуться в каталог

ONEWEB-0115

АктивенСвязьPO
NORAD 48042·PAYLOAD·🇬🇧 United Kingdom

Запущен Mar 25, 2021 с Vostochny Cosmodrome

Loading…

Ближайшие Пролёты (ближайшие 24 часа)

TLE

СвежийSource: CelesTrak SupGP

Эпоха: Sep 14, 2026, 20:15 UTC

1 48042C 21025A   26257.84423611 -.00001267  00000+0 -34742-2 0  2575
2 48042  87.8916 302.3883 0001998  96.0954 299.4727 13.13465205    17

Отслеживайте ONEWEB-0115 в реальном времени с AllMySat

Download on the App Store